Location: Sungai Bunut
(2.6333°N, 113.7333°E)
Time: 09:42:00
(UTC+00:00)

A-11 Canister half - Pass Details

Date: 05 December 2023
Orbit: 1526 x 1682 km, 47.3° (Epoch: 04 March)

Event Time Altitude Azimuth Distance (km) Brightness Sun altitude
Exits shadow 20:49:35 31° 291° (WNW) 2,487 9.5 -20.9°
Maximum altitude 20:54:13 54° 231° (SW) 1,828 9.2 -19.8°
Drops below altitude 10° 21:03:14 10° 156° (SSE) 3,694 11.7 -17.7°
Sets 21:06:22 0° 151° (SSE) 4,673 12.4 -17.0°
